Regional Weather Roundup
Issued by NWS Pendleton, OR

Home | Current Version | Previous Version | Text Only | Print | Product List | Glossary On
Versions: 1 2 3 4 5 6 7 8 9 10 11 12 13 14 15 16 17 18 19 20 21 22 23 24 25 26 27 28 29 30 31 32 33 34 35 36 37 38 39 40 41 42 43 44 45 46 47 48 49 50
131
ASUS46 KPDT 250810
RWRPDT
PENDLETON REGIONAL WEATHER ROUNDUP
NATIONAL WEATHER SERVICE PENDLETON OREGON
100 AM PDT SAT MAR 25 2017

NOTE: FAIR INDICATES FEW OR NO CLOUDS BELOW 12,000 FEET WITH NO
SIGNIFICANT WEATHER AND/OR OBSTRUCTIONS TO VISIBILITY.

# INDICATES UNOFFICIAL STATION AND DATA

WAZ520-250910-
EAST SLOPES OF WASHINGTON CASCADES

CITY            SKY/WX      TMP DP  RH  WIND    PRES   REMARKS
#CLE ELUM HS    N/A         37  36  96  CALM    29.94R
#CLE ELUM LAKE  N/A         36  33  89  CALM    30.01R
#GLENWOOD       N/A         39  37  92  CALM    30.06R
#NELSON 3SW     N/A         32  31  96  CALM    30.24R
#NILE           N/A         35  33  92  W1      29.28R
#TEANAWAY 4NE   N/A         38  38  100 CALM    N/A
#TROUT LAKE 1NE N/A         36  35  96  CALM    30.08R
#TROUT LAKE 1E  N/A         32  31  96  CALM    30.07R
$$

WAZ521-250910-
SIMCOE HIGHLANDS

CITY            SKY/WX      TMP DP  RH  WIND    PRES   REMARKS
#BICKLETON HS   N/A         38  36  92  SW12    30.06R WCI 30
#CENTERVILLE 1SWN/A         40  35  82  CALM    30.04S
#GOLDENDALE 1NE N/A         42  32  67  S2      N/A
#GOLDENDALE 4W  N/A         40  27  59  CALM    30.06S
#GOODNOE HILLS  N/A         44  37  76  W9      29.96R
#LYLE 6NE       N/A         41  39  93  S1      30.04S
#PITT 4SE       N/A         37  36  96  SW2     30.10R
$$

WAZ026-250910-
KITTITAS VALLEY

CITY            SKY/WX      TMP DP  RH  WIND    PRES   REMARKS
ELLENSBURG AP   PTCLDY      39  34  82  SW3     29.98R
#ELLENSBURG CWU N/A         40  36  85  NW1     29.94R
#ELLENSBURG 3NE N/A         39  35  85  CALM    28.06R
#ELLENSBURG 1E  N/A         38  N/A N/A CALM    N/A
#ELLENSBURG 13S N/A         41  36  82  CALM    N/A
#KITTITAS 4N    N/A         36  31  82  CALM    29.99R
#KITTITAS 3S    N/A         38  35  89  S1      29.99R
#THORP 6N       N/A         37  35  92  N10     30.03R
$$

WAZ027-250910-
YAKIMA VALLEY

CITY            SKY/WX      TMP DP  RH  WIND    PRES   REMARKS
SUNNYSIDE AP    PTCLDY      46  34  63  CALM    30.03R
YAKIMA AIRPORT  PTCLDY      45  36  70  CALM    30.00R
YAKIMA-VAGABOND MOCLEAR     41  33  73  CALM    29.97R
#DONALD 2NE     N/A         42  25  51  W1      28.86R
#GRANDVIEW      N/A         49  34  56  CALM    30.05R
#MABTON         N/A         49  39  68  SW10    30.02R
#MOXEE 2E       N/A         43   0  16  S3      29.95R
#NACHES 2SW     N/A         41  36  82  W1      29.98R
#TERRACE HTS    N/A         42  36  79  CALM    29.98R
#TOPPENISH      N/A         46  37  71  CALM    29.94R
#WEST VALLEY    N/A         42  36  79  SW1     29.99R
#W YAKIMA       N/A         42  36  79  CALM    30.02R
#WHITE SWAN 5E  N/A         45  37  73  CALM    30.02R
#WILEY CITY 3W  N/A         41  31  67  CALM    29.96R
$$

WAZ028-250910-
LOWER COLUMBIA BASIN...WASHINGTON

CITY            SKY/WX      TMP DP  RH  WIND    PRES   REMARKS
PASCO           PTCLDY      43  38  82  E7      30.04S
PROSSER AWOS    N/A         50  36  58  W13     30.06R
RICHLAND AWOS   PTCLDY      48  40  74  S3      30.03R
#BENTON CITY    N/A         48  38  68  W3      29.95R
#CONNELL 5N     N/A         43  40  89  SW7     30.01S
#CONNELL 5NW    N/A         44  40  86  SW7     29.97R
#ELTOPIA 6NW    N/A         46  41  83  SW2     28.97S
#KAHLOTUS       N/A         45  40  82  W22G29  30.01S WCI 37
#KENNEWICK 3S   N/A         46  41  83  S7      30.03S
#PATERSON       N/A         43  40  89  CALM    30.04R
#SAGEMOOR 2W    N/A         45  39  79  SW7     29.91R
#TOUCHET 2S     N/A         48  41  77  SW7     30.03R
#WEST PASCO     N/A         47  41  79  SE1     30.01S
$$

WAZ029-250910-
FOOTHILLS OF THE BLUES...WASHINGTON

CITY            SKY/WX      TMP DP  RH  WIND    PRES   REMARKS
WALLA WALLA AP  CLOUDY      46  40  79  S12     30.05R WCI 40
#CLYDE 6NW      N/A         46  40  79  SW10    30.03S
#DAYTON SCHOOL  N/A         43  33  67  E1      30.06R
#LOWDEN 2SE     N/A         38  36  92  CALM    30.02R
#PLEASANT VIEW 1N/A         40  38  92  SW9     30.07R
#PRESCOTT       N/A         39  37  92  CALM    30.04R
#WHITMAN COLLEGEN/A         46  40  79  S2      30.10R
#WAITSBURG 5S   N/A         44  39  82  S7      30.14R
#WAITSBURG 8N   N/A         38  N/A N/A CALM    29.96S
#WALLA WALLA 5E N/A         47  41  79  S10     N/A
#WALLA WALLA U  N/A         47  41  79  CALM    30.06R
#WHITMAN MISSIONN/A         43  41  93  S5      30.07R
$$

WAZ030-250910-
BLUE MOUNTAINS...WASHINGTON

CITY            SKY/WX      TMP DP  RH  WIND    PRES   REMARKS
#DIXIE 5SE      N/A         42  36  79  S8      29.95R
$$

ORZ009-041-WAZ024-250910-
COLUMBIA RIVER GORGE

CITY            SKY/WX      TMP DP  RH  WIND    PRES   REMARKS
HOOD RIVER AP   CLOUDY      43  43  100 CALM    30.09R
THE DALLES AP   CLOUDY      47  42  83  N9      30.07S
#ARLINGTON AIRPON/A         44  39  82  SW3     30.08R
#CELILO DOT     N/A         47  37  68  CALM    N/A
#LYLE           N/A         46  43  89  N3      30.09S
#MOSIER 1S      N/A         42  36  79  CALM    30.06R
#MURDOCK        N/A         46  42  86  NW7     30.04R
#RUFUS DOT      N/A         48  40  74  CALM    N/A
#SMITHVILLE     N/A         46  42  86  N7      30.02R

$$

ORZ510-250910-
NORTH CENTRAL OREGON

CITY            SKY/WX      TMP DP  RH  WIND    PRES   REMARKS
#ANTELOPE       N/A         35  31  85  N1      29.93R
#CHENOWITH 1W   N/A         39  39  100 NW14    N/A    WCI 31
#COW CYN RST AREN/A         38  33  82  SW7     N/A
#DUFUR          N/A         40  37  89  CALM    30.04R
#DUFUR 9E       N/A         38  36  92  CALM    30.12R
#GRASS VALLEY 1SN/A         37  33  85  S1      30.17R
#KENT DOT       N/A         37  29  72  N8      N/A
#MAUPIN SCHOOL  N/A         43  37  79  CALM    30.10R
#MORO SCHOOL    N/A         42  41  96  CALM    30.11R
#SHANIKO 5WSW   N/A         36  28  72  N12     N/A    WCI 28
#SHANIKO 4NW    N/A         36  32  85  SW5     30.00S
#TYGH VALLEY 2NEN/A         43  38  82  W1      30.05R
#WAPANITIA AIRPON/A         41  36  82  W2      30.08R
#WASCO 5NE      N/A         39  36  89  CALM    30.06S
$$

ORZ511-250910-
CENTRAL OREGON

CITY            SKY/WX      TMP DP  RH  WIND    PRES   REMARKS
BEND AIRPORT    PTCLDY      39  30  70  S14     30.05S WCI 31
MADRAS AIRPORT  MOCLDY      39  32  76  S10     30.07S
PRINEVILLE AP   PTCLDY      39  32  76  S10     30.05S
REDMOND AIRPORT PTCLDY      40  30  67  S12     30.05S WCI 33
#ASHWOOD SCHOOL N/A         36  32  85  CALM    30.02R
#BEND 1SW       N/A         35  32  89  SW2     N/A
#BEND-AWBREY    N/A         38  34  85  SW7     30.08R
#BEND-KIM LN    N/A         35  32  89  E1      30.00R
#CULVER         N/A         36  30  79  CALM    29.99R
#CULVER 8W      N/A         39  34  82  CALM    30.05S
#LAKE BILLY CHINN/A         43  N/A N/A SW6     30.15S
#POWELL BUTTE   N/A         41  31  67  S9      29.99S
#PRINEVILLE     N/A         39  31  73  CALM    30.15S
#PRINEVILLE 3N  N/A         34  29  82  N2      30.06S
#WARM SPRINGS   N/A         46  36  68  CALM    30.01S

$$


ORZ509-250910-
EAST SLOPES OF OREGON CASCADES

CITY            SKY/WX      TMP DP  RH  WIND    PRES   REMARKS
SISTERS AWOS    N/A         37  34  89  CALM    30.01S
#BLUE BOX PASS  N/A         32  N/A N/A NW1     N/A
#CAMP SHERMAN   N/A         35  33  92  CALM    30.15S
#LA PINE 4SW    N/A         34  30  85  W2      30.06S
#LA PINE 4NW    N/A         32  28  85  CALM    30.15R
#LAVA BUTTE DOT N/A         33  28  82  S1      N/A
#SISTERS 3N     N/A         36  30  79  CALM    30.08R
#SUNRIVER       N/A         33  31  92  CALM    30.12R
#TUMALO 3W      N/A         36  32  85  S2      29.94R
#WANOGA BUTTE D N/A         28  28  100 SW6     N/A

$$

ORZ044-250910-
LOWER COLUMBIA BASIN...OREGON

CITY            SKY/WX      TMP DP  RH  WIND    PRES   REMARKS
HERMISTON       MOCLEAR     42  39  89  SW7     30.05R
#BOARDMAN SCHOOLN/A         44  39  82  S3      30.06R
#BOARDMAN 8SW   N/A         43  38  82  SW5     30.06R
#I-84 EX 198 DOTN/A         45  37  73  N8      N/A
#IONE SCHOOL    N/A         41  26  55  CALM    30.08R
#UMATILLA       N/A         42  38  86  CALM    29.99R
$$

ORZ507-250910-
NORTHERN FOOTHILLS OF THE BLUES

CITY            SKY/WX      TMP DP  RH  WIND    PRES   REMARKS
PENDLETON AIRPT PTCLDY      42  36  79  S8      30.05R
#ADAMS 3WNW     N/A         38  35  89  W1      30.06R
#ATHENA         N/A         43  37  79  S1      30.09R
#CAYUSE         N/A         42  36  79  CALM    30.06R
#HELIX SCHOOL   N/A         39  36  89  N3      30.06R
#HELIX 3N       N/A         38  35  89  SW5     30.01R
#HOLDMAN 5SE    N/A         41  36  82  SW1     30.03S
#HOLDMAN 6E     N/A         43  39  86  S7      29.87R
#M-F FERNDALE   N/A         46  39  76  CALM    30.03R
#M-F GROVE ELEM N/A         44  35  70  S2      30.03R
#M-FREEWATER 5SEN/A         47  38  71  CALM    30.05R
#PENDLETON DNTN N/A         40  36  85  CALM    30.04S
#PDT AQUATIC CTRN/A         41  37  86  CALM    30.05S
#PDT SUNRIDGE   N/A         42  37  82  S2      30.07R
#PENDLETON 7NW  N/A         42  35  76  SW5     31.98S
#PILOT ROCK 1S  N/A         42  32  67  S7      30.05R
#PILOT ROCK     N/A         41  35  79  NE3     30.07R
#TUTUILLA       N/A         38  35  89  S2      30.07R
#UMAPINE 2E     N/A         46  41  83  SW2     30.03R
#WESTON SCHOOL  N/A         44  34  68  W7      30.06R

$$

ORZ508-250910-
SOUTHERN FOOTHILLS OF THE BLUES

CITY            SKY/WX      TMP DP  RH  WIND    PRES   REMARKS
LEXINGTON       MOCLDY      43  36  76  SE5     30.08R
#AJAX           N/A         42  29  60  S8      30.17S
#CONDON SCHOOL  N/A         38  33  82  W2      29.98S
#CONDON 5W      N/A         38  31  76  SW7     29.99F
#FOSSIL SCHOOL  N/A         36  32  85  CALM    29.99R
#HEPPNER EOC    N/A         42  36  79  SE3     29.99S
#HEPPNER 4NE    N/A         40  35  82  CALM    30.06R
#LEXINGTON 2SE  N/A         43  37  79  CALM    30.02R
#OLEX 4N        N/A         42  38  86  CALM    30.03R
#RUGGS 5NE      N/A         38  35  89  E2      30.17S
#RUGGS 2SW      N/A         39  34  82  W8      30.07S

$$

ORZ502-503-250910-
BLUE MOUNTAINS

CITY            SKY/WX      TMP DP  RH  WIND    PRES   REMARKS
MEACHAM         CLOUDY      31  27  85  CALM    30.04R
#BATTLE MTN DOT N/A         33  32  96  S6      N/A
#GREENHORN 9SW  N/A         50  N/A N/A CALM    26.26
#HARDMAN 10S    N/A         31  30  96  S2      30.21S
#HEPPNER 15SE   N/A         35  31  85  CALM    30.06R
#LADD CYN SMT   N/A         34  34  100 SE6     N/A
#LADD CREEK ODOTN/A         35  34  96  SW2     N/A
#LONG CREEK HS  N/A         36  34  92  CALM    N/A
#N POWDER DOT   N/A         34  34  100 SW6     N/A
#PIKES PEAK     N/A         40  33  76  W17G24  27.99S WCI 31
#TOLLGATE       N/A         31  30  96  SW2     29.87R
#TROY SCHOOL    N/A         38  36  92  CALM    29.96R
#UKIAH          N/A         32  31  96  CALM    30.01R
#WESTON 4E      N/A         39  35  85  S5      30.05R
$$

ORZ505-250910-
JOHN DAY BASIN

CITY            SKY/WX      TMP DP  RH  WIND    PRES   REMARKS
JOHN DAY        PTCLDY      36  34  92  CALM    30.08R
#JOHN DAY KJDY  N/A         35  N/A N/A NE2     29.65S
#ANTELOPE 9ESE  N/A         39  34  82  CALM    N/A
#DAYVILLE SCHOOLN/A         39  32  76  CALM    30.03R
#MITCHELL       N/A         37  33  85  CALM    30.20R
#MITCHELL 8NW   N/A         41  31  67  SW7     29.89S
#MONUMENT HS    N/A         35  32  89  CALM    30.03R
#MT. VERNON 5SE N/A         33  31  92  CALM    30.02R
#SPRAY SCHOOL   N/A         35  N/A N/A CALM    N/A
#WINLOCK        N/A         37  34  89  CALM    30.01S
$$

ORZ506-250910-
OCHOCO AND JOHN DAY HIGHLANDS

CITY            SKY/WX      TMP DP  RH  WIND    PRES   REMARKS
#HORSE RIDGE DO N/A         33  26  75  SE3     N/A
#PAULINA SCHOOL N/A         37  30  75  W3      N/A
#PINE MTN OBS   N/A         28  27  96  SE14    N/A    WCI 17
#PRAIRIE CITY   N/A         32  30  92  CALM    30.23R
#SENECA         N/A         29  N/A N/A N1      N/A
#SENECA 9NW     N/A         28  27  96  CALM    30.11R
$$

ORZ049-250910-
GRANDE RONDE VALLEY

CITY            SKY/WX      TMP DP  RH  WIND    PRES   REMARKS
LA GRANDE       CLOUDY      37  32  82  SE6     30.05R
#COVE           N/A         41  38  89  CALM    30.08R
#COVE SCHOOL    N/A         42  36  79  CALM    30.06S
#COVE 6NW       N/A         38  35  89  CALM    30.09R
#ELGIN 3N       N/A         34  29  82  N1      30.02S
#ELGIN 1E       N/A         39  34  82  CALM    N/A
#IMBLER SCHOOL  N/A         36  34  92  CALM    30.02R
#ISLAND CITY 4N N/A         44  42  93  CALM    30.11R
#UNION 1S       N/A         41  36  82  CALM    30.09R
$$

ORZ050-250910-
WALLOWA COUNTY

CITY            SKY/WX      TMP DP  RH  WIND    PRES   REMARKS
JOSEPH AIRPORT  MOCLDY      36  32  85  CALM    30.04S
#IMNAHA SCHOOL  N/A         42  37  82  N2      30.06S
#IMNAHA 10S     N/A         37  35  92  SW5     30.03S
#JOSEPH 3N      N/A         35  29  78  CALM    30.06R
#JOSEPH 3W      N/A         N/A N/A N/A SW1     29.87S
#LOSTINE        N/A         37  33  85  CALM    29.89S
#LOSTINE 3SE    N/A         36  33  89  CALM    30.08S
#MT HOWARD 8000 N/A         24  21  88  CALM    29.97R
#PROMISE 1S     N/A         32  30  92  CALM    30.19R
#WALLOWA SCHOOL N/A         33  32  96  CALM    30.02S



$$



USA.gov is the U.S. government's official web portal to all federal, state and local government web resources and services.